SCP
0 0 0 0 0 0 0 0 0 0 0 0 0 0 0 0 0 0 0 0 0 0 0 0 0 0 0 0 0 0 0 0 0 0 0 0 0 0 0 0 0 0 0
0 0 0 0 0 0 0 0 0 0 0 0 0 0 0 0 0 0 0 0 0 0 0 0 0 0 0 0 0 0 0 0 0 0 0 0 0 0 0 0 0 0 0
0 0 0 0 0 0 0 0 0 0 0 0 0 0 0 0 0 0 0 0 0 0 0 0 0 0 0 0 0 0 0 0 0 0 0 0 0 0 0 0 0 0 0
0 0 0 0 0 0 0 0 0 0 0 0 0 0 0 0 0 0 0 0 0 0 0 0 0 0 0 0 0 0 0 0 0 0 0 0 0 0 0 0 0 0 0
0 0 0 0 0 0 0 0 0 0 0 0 0 0 0 0 0 0 0 0 0 0 0 0 0 0 0 0 0 0 0 0 0 0 0 0 0 0 0 0 0 0 0
0 0 0 0 0 0 0 0 0 0 0 0 0 0 0 0 0 0 0 0 0 0 0 0 0 0 0 0 0 0 0 0 0 0 0 0 0 0 0 0 0 0 0
0 0 0 0 0 0 0 0 0 0 0 0 0 0 0 0 0 0 0 0 0 0 0 0 0 0 0 0 0 0 0 0 0 0 0 0 0 0 0 0 0 0 0
0 0 0 0 0 0 0 0 0 0 0 0 0 0 0 0 0 0 0 0 0 0 0 0 0 0 0 0 0 0 0 0 0 0 0 0 0 0 0 0 0 0 0
0 0 0 0 0 0 0 0 0 0 0 0 0 0 0 0 0 0 0 0 0 0 0 0 0 0 0 0 0 0 0 0 0 0 0 0 0 0 0 0 0 0 0
0 0 0 0 0 0 0 0 0 0 0 0 0 0 0 0 0 0 0 0 0 0 0 0 0 0 0 0 0 0 0 0 0 0 0 0 0 0 0 0 0 0 0
0 0 0 0 0 0 0 0 0 0 0 0 0 0 0 0 0 0 0 0 0 0 0 0 0 0 0 0 0 0 0 0 0 0 0 0 0 0 0 0 0 0 0
0 0 0 0 0 0 0 0 0 0 0 0 0 0 0 0 0 0 0 0 0 0 0 0 0 0 0 0 0 0 0 0 0 0 0 0 0 0 0 0 0 0 0
0 0 0 0 0 0 0 0 0 0 0 0 0 0 0 0 0 0 0 0 0 0 0 0 0 0 0 0 0 0 0 0 0 0 0 0 0 0 0 0 0 0 0
0 0 0 0 0 0 0 0 0 0 0 0 0 0 0 0 0 0 0 0 0 0 0 0 0 0 0 0 0 0 0 0 0 0 0 0 0 0 0 0 0 0 0
0 0 0 0 0 0 0 0 0 0 0 0 0 0 0 0 0 0 0 0 0 0 0 0 0 0 0 0 0 0 0 0 0 0 0 0 0 0 0 0 0 0 0
0 0 0 0 0 0 0 0 0 0 0 0 0 0 0 0 0 0 0 0 0 0 0 0 0 0 0 0 0 0 0 0 0 0 0 0 0 0 0 0 0 0 0
0 0 0 0 0 0 0 0 0 0 0 0 0 0 0 0 0 0 0 0 0 0 0 0 0 0 0 0 0 0 0 0 0 0 0 0 0 0 0 0 0 0 0
0 0 0 0 0 0 0 0 0 0 0 0 0 0 0 0 0 0 0 0 0 0 0 0 0 0 0 0 0 0 0 0 0 0 0 0 0 0 0 0 0 0 0
-0 0 0 0 0 0 0 0 0 0 0 0 0 0 0 0 0 0 0 0 0 0 0 0 0 0 0 0 0 0 0 0 0 0 0 0 0 0 0 0 0 0 0
-0 -0 0 0 0 0 0 0 0 0 0 0 0 0 0 0 0 0 0 0 0 0 0 0 0 0 0 0 0 0 0 0 0 0 0 0 0 0 0 0 0 0 0
0 0 0 0 0 0 0 0 0 0 0 0 0 0 0 0 0 0 0 0 0 0 0 0 0 0 0 0 0 0 0 0 0 0 0 0 0 0 0 0 0 0 0
0 0 0 0 0 0 0 0 0 0 0 0 0 0 0 0 0 0 0 0 0 0 0 0 0 0 0 0 0 0 0 0 0 0 0 0 0 0 0 0 0 0 0
0 0 0 0 0 0 0 0 0 0 0 0 0 0 0 0 0 0 0 0 0 0 0 0 0 0 0 0 0 0 0 0 0 0 0 0 0 0 0 0 0 0 0
0 0 0 0 0 0 0 0 0 0 0 0 0 0 0 0 0 0 0 0 0 0 0 0 0 0 0 0 0 0 0 0 0 0 0 0 0 0 0 0 0 0 0
-0 -0 0 0 0 0 0 0 0 0 0 0 0 0 0 0 0 0 0 0 0 0 0 0 0 0 0 0 0 0 0 0 0 0 0 0 0 0 0 0 0 0 0
-0 -0 -0 0 0 0 0 0 0 0 0 0 0 0 0 0 0 0 0 0 0 0 0 0 0 0 0 0 0 0 0 0 0 0 0 0 0 0 0 0 0 0 0
Wind_Speed_500mb
73 72 81 73 71 69 70 69 69 67 64 61 57 56 55 54 47 37 30 25 21 15 16 13 13 10 11 14 16 11 11 16 13 10 10 6 2 2 7 5 9 16 20
71 78 78 80 77 76 75 75 72 71 73 67 63 59 56 55 43 39 35 30 26 22 17 16 14 15 16 18 18 16 18 17 16 12 10 7 8 9 6 6 9 14 19
85 86 90 88 84 83 82 81 77 75 76 72 66 61 59 55 52 50 44 37 33 27 22 20 18 18 19 20 20 19 18 16 20 22 12 9 10 13 9 8 10 13 20
82 86 90 96 97 91 86 80 77 77 76 75 74 73 70 68 59 51 44 43 38 32 27 25 22 21 22 24 24 22 21 19 22 27 30 20 12 8 6 8 13 14 20
85 91 97 96 95 91 90 86 82 77 78 78 79 73 73 64 53 51 50 48 44 39 32 29 27 26 26 27 25 24 25 23 24 28 27 21 18 15 13 10 11 15 18
91 89 91 95 93 94 92 90 87 80 79 80 80 74 72 66 62 58 56 52 46 38 36 34 33 32 30 29 26 25 25 24 26 26 22 17 13 10 10 9 11 12 15
96 97 97 101 99 100 99 95 93 88 85 83 83 76 72 66 66 61 57 56 52 46 42 39 37 35 31 31 27 27 26 26 26 22 18 15 13 10 8 9 10 12 16
98 102 104 104 102 102 101 100 100 95 92 87 84 79 74 70 72 64 60 55 48 40 40 41 39 37 35 33 30 29 28 28 27 22 18 15 11 9 8 8 10 11 12
91 106 109 106 103 100 103 105 103 100 97 92 89 81 78 73 69 65 64 57 52 43 48 44 41 37 39 35 33 31 30 30 27 22 20 15 11 8 7 8 11 12 11
84 89 108 108 105 98 97 99 100 101 99 95 94 86 81 76 72 66 63 57 55 49 53 47 43 41 41 38 35 34 33 32 27 24 20 17 13 9 8 10 11 14 16
71 87 88 100 104 100 96 93 92 93 91 92 94 85 80 76 70 66 63 58 61 56 53 47 43 43 42 40 38 37 35 33 30 26 21 19 15 10 11 11 12 16 19
41 69 80 82 85 89 86 85 85 90 91 92 89 86 80 75 72 70 62 58 60 59 51 47 43 45 43 41 40 39 36 32 29 25 25 21 17 16 16 14 16 20 22
31 34 44 59 67 70 76 78 79 81 83 88 89 88 83 76 73 66 58 58 56 51 49 46 47 44 44 44 42 39 35 34 30 27 25 23 22 23 22 22 22 24 26
24 35 43 47 50 56 57 61 67 72 77 81 78 80 80 74 66 57 62 60 57 52 48 47 44 45 45 45 44 41 38 34 31 29 27 28 29 32 30 29 28 30 31
8 14 22 29 39 49 54 58 59 61 65 67 68 70 69 58 53 59 63 54 52 48 46 45 47 47 50 49 45 40 37 36 34 30 29 33 37 37 36 36 35 37 38
10 14 14 20 28 35 42 49 54 57 58 58 58 57 53 58 61 60 56 53 50 48 46 46 47 50 51 48 43 38 37 36 32 31 33 37 41 41 41 42 43 44 43
11 10 12 18 24 28 30 39 45 48 52 54 51 53 56 58 56 54 55 52 48 47 47 48 51 51 48 46 41 38 36 33 31 35 38 41 42 43 45 47 49 50 49
13 13 19 21 21 24 26 29 39 44 50 51 52 55 55 53 52 53 52 47 47 46 46 50 51 50 48 45 40 34 32 32 33 37 40 43 42 44 46 50 54 54 49
19 19 20 21 22 28 31 38 41 43 48 55 56 56 55 53 55 55 48 49 45 46 48 50 50 49 49 43 35 32 32 32 34 34 42 44 43 42 47 52 54 52 48
27 28 28 34 36 36 41 44 46 48 53 56 59 58 55 53 53 46 45 43 45 44 46 48 48 48 44 38 32 32 32 34 31 36 44 44 44 43 46 52 51 57 46
34 32 27 31 35 39 41 52 52 56 56 51 48 47 49 50 45 43 44 43 43 44 47 47 46 43 38 36 34 32 34 34 37 44 43 43 45 47 47 50 53 48 46
33 35 34 26 30 39 46 47 51 50 51 48 47 50 51 49 46 46 45 43 43 45 45 44 43 42 39 37 34 35 37 40 43 45 41 44 48 49 49 50 49 46 48
36 37 37 28 26 30 37 48 43 44 53 52 51 52 51 51 49 48 46 45 46 44 42 41 41 40 39 38 39 41 42 43 41 38 40 43 42 43 45 43 43 44 47
40 36 33 30 28 28 32 39 43 42 44 46 47 51 52 50 48 45 44 42 40 37 36 37 37 39 43 42 42 40 38 36 36 37 40 41 41 42 41 43 41 39 40
44 38 35 31 27 24 26 32 37 42 41 42 45 49 49 49 48 46 40 36 34 32 32 31 33 38 39 37 36 33 34 34 36 37 37 38 38 40 41 39 40 40 36
37 36 35 32 27 22 20 24 31 35 39 42 47 50 51 49 45 41 40 38 34 29 28 28 28 29 31 32 31 33 34 34 34 30 29 30 29 31 32 33 32 31 34
Wind_Direction_500mb
197 196 194 201 203 206 206 204 201 199 199 199 198 199 199 204 210 208 208 213 218 220 225 223 238 228 214 220 210 208 199 182 172 165 154 154 163 194 13 16 9 359 357
194 197 195 202 204 205 207 208 207 203 204 205 206 208 208 213 218 215 214 216 216 225 219 229 237 231 226 229 217 211 191 194 199 200 203 206 234 232 299 320 345 348 348
197 200 199 200 203 207 208 209 209 207 208 208 209 209 214 222 219 216 217 219 222 229 233 235 233 231 231 229 228 224 214 212 213 209 205 211 228 216 247 294 306 327 346
204 202 201 203 208 209 210 211 212 210 211 210 211 216 219 220 224 224 222 223 225 229 233 239 238 237 230 225 221 226 232 229 218 215 218 232 243 229 250 272 295 326 336
205 202 205 207 208 206 208 212 215 214 214 213 217 220 224 228 230 224 222 223 226 231 228 237 241 235 228 228 222 224 229 228 216 214 219 220 231 243 249 271 292 312 326
206 208 209 209 209 208 210 212 216 216 217 217 220 222 227 226 225 223 224 225 224 229 234 238 236 231 226 227 222 224 227 224 216 215 220 227 241 240 244 252 278 299 314
203 207 204 206 211 211 211 213 216 218 219 219 224 225 228 228 230 230 230 227 225 230 233 235 236 233 228 228 220 222 222 218 217 218 221 229 244 269 287 291 297 303 311
207 206 208 211 213 213 213 214 215 218 220 220 227 229 229 232 228 232 233 231 234 239 239 230 232 228 228 223 219 220 218 216 215 215 221 231 242 266 290 302 303 304 301
206 207 211 213 214 215 215 216 215 218 220 221 226 230 229 228 234 234 231 231 232 229 237 228 230 227 227 220 218 219 218 216 217 217 222 225 242 258 280 302 311 315 309
210 208 212 213 215 219 220 219 220 219 220 221 226 224 226 227 231 234 233 233 229 229 229 226 229 224 224 219 218 218 216 218 218 220 223 229 239 252 276 296 302 312 313
214 214 213 215 217 218 220 221 220 222 222 223 227 223 225 228 232 233 235 230 227 224 227 226 225 224 222 218 217 218 219 219 220 223 225 233 243 257 269 279 298 305 302
198 213 214 212 213 217 218 220 218 218 221 223 225 226 226 227 231 233 231 225 222 226 223 224 224 223 219 218 219 222 222 222 225 227 232 237 247 252 261 272 283 285 292
184 184 187 194 203 209 213 214 215 217 222 226 227 228 231 227 226 225 225 219 223 221 221 223 222 220 218 218 220 223 223 224 227 235 243 247 254 258 261 266 274 283 287
188 198 202 205 208 214 219 224 225 226 225 224 225 226 227 230 224 221 214 218 217 221 222 223 221 218 217 218 220 223 224 227 234 240 246 255 259 262 266 270 273 277 284
203 210 212 215 220 225 225 224 224 222 221 219 222 226 231 224 212 212 215 214 219 223 222 221 216 214 216 218 221 224 227 232 237 244 253 260 264 267 270 273 275 277 281
248 235 232 231 231 229 227 223 219 218 220 222 223 222 212 212 212 213 214 218 221 222 221 218 217 218 218 218 221 226 233 239 244 253 258 265 270 273 275 276 275 276 281
7 321 271 251 243 240 232 228 219 213 215 215 213 213 210 212 214 216 219 220 222 223 220 218 218 218 219 220 224 228 235 242 250 257 264 270 276 279 281 277 275 276 279
326 326 324 303 265 249 242 235 224 217 217 216 214 216 216 217 219 221 224 222 223 220 219 218 218 219 220 223 226 233 239 246 253 261 270 275 280 282 280 277 277 280 284
299 285 262 262 266 258 249 238 233 226 224 220 220 220 221 221 223 224 224 223 221 220 219 219 220 221 222 226 229 235 243 249 258 268 275 280 282 283 278 277 280 280 282
312 292 276 261 249 244 249 245 238 232 227 224 222 220 221 223 226 226 225 224 223 221 220 222 223 224 224 229 232 238 247 255 264 270 276 284 287 280 277 278 279 280 286
320 315 295 269 257 247 238 238 236 234 233 229 226 224 222 222 223 223 224 222 219 218 221 224 226 228 227 232 238 245 252 259 264 269 278 285 281 275 273 274 275 282 280
331 322 311 286 258 248 244 239 237 239 235 230 224 222 222 219 219 220 218 215 216 219 223 227 228 227 230 236 244 252 258 262 269 279 283 278 276 278 274 272 277 278 279
337 333 321 300 286 267 249 242 244 240 239 232 224 222 220 218 216 216 213 214 216 221 225 229 230 228 233 239 246 254 260 270 279 280 279 278 279 277 276 276 275 275 278
336 336 330 313 295 281 260 243 234 233 234 235 228 220 216 213 211 211 213 218 221 224 229 231 232 230 232 239 249 260 268 272 277 281 284 288 286 282 281 280 282 282 282
336 338 335 322 307 290 272 252 238 228 223 221 220 218 213 210 209 208 210 216 219 222 227 229 231 234 241 249 257 260 263 273 278 284 285 285 284 281 283 287 292 294 295
338 341 340 329 315 300 282 256 237 230 215 210 213 210 207 204 203 206 206 210 217 223 227 229 234 240 244 247 258 269 274 277 280 282 280 276 275 279 286 297 307 312 314
Wind_Speed_850mb
73 72 81 73 71 69 70 69 69 67 64 61 57 56 55 54 47 37 30 25 21 15 16 13 13 10 11 14 16 11 11 16 13 10 10 6 2 2 7 5 9 16 20
71 78 78 80 77 76 75 75 72 71 73 67 63 59 56 55 43 39 35 30 26 22 17 16 14 15 16 18 18 16 18 17 16 12 10 7 8 9 6 6 9 14 19
85 86 90 88 84 83 82 81 77 75 76 72 66 61 59 55 52 50 44 37 33 27 22 20 18 18 19 20 20 19 18 16 20 22 12 9 10 13 9 8 10 13 20
82 86 90 96 97 91 86 80 77 77 76 75 74 73 70 68 59 51 44 43 38 32 27 25 22 21 22 24 24 22 21 19 22 27 30 20 12 8 6 8 13 14 20
85 91 97 96 95 91 90 86 82 77 78 78 79 73 73 64 53 51 50 48 44 39 32 29 27 26 26 27 25 24 25 23 24 28 27 21 18 15 13 10 11 15 18
91 89 91 95 93 94 92 90 87 80 79 80 80 74 72 66 62 58 56 52 46 38 36 34 33 32 30 29 26 25 25 24 26 26 22 17 13 10 10 9 11 12 15
96 97 97 101 99 100 99 95 93 88 85 83 83 76 72 66 66 61 57 56 52 46 42 39 37 35 31 31 27 27 26 26 26 22 18 15 13 10 8 9 10 12 16
98 102 104 104 102 102 101 100 100 95 92 87 84 79 74 70 72 64 60 55 48 40 40 41 39 37 35 33 30 29 28 28 27 22 18 15 11 9 8 8 10 11 12
91 106 109 106 103 100 103 105 103 100 97 92 89 81 78 73 69 65 64 57 52 43 48 44 41 37 39 35 33 31 30 30 27 22 20 15 11 8 7 8 11 12 11
84 89 108 108 105 98 97 99 100 101 99 95 94 86 81 76 72 66 63 57 55 49 53 47 43 41 41 38 35 34 33 32 27 24 20 17 13 9 8 10 11 14 16
71 87 88 100 104 100 96 93 92 93 91 92 94 85 80 76 70 66 63 58 61 56 53 47 43 43 42 40 38 37 35 33 30 26 21 19 15 10 11 11 12 16 19
41 69 80 82 85 89 86 85 85 90 91 92 89 86 80 75 72 70 62 58 60 59 51 47 43 45 43 41 40 39 36 32 29 25 25 21 17 16 16 14 16 20 22
31 34 44 59 67 70 76 78 79 81 83 88 89 88 83 76 73 66 58 58 56 51 49 46 47 44 44 44 42 39 35 34 30 27 25 23 22 23 22 22 22 24 26
24 35 43 47 50 56 57 61 67 72 77 81 78 80 80 74 66 57 62 60 57 52 48 47 44 45 45 45 44 41 38 34 31 29 27 28 29 32 30 29 28 30 31
8 14 22 29 39 49 54 58 59 61 65 67 68 70 69 58 53 59 63 54 52 48 46 45 47 47 50 49 45 40 37 36 34 30 29 33 37 37 36 36 35 37 38
10 14 14 20 28 35 42 49 54 57 58 58 58 57 53 58 61 60 56 53 50 48 46 46 47 50 51 48 43 38 37 36 32 31 33 37 41 41 41 42 43 44 43
11 10 12 18 24 28 30 39 45 48 52 54 51 53 56 58 56 54 55 52 48 47 47 48 51 51 48 46 41 38 36 33 31 35 38 41 42 43 45 47 49 50 49
13 13 19 21 21 24 26 29 39 44 50 51 52 55 55 53 52 53 52 47 47 46 46 50 51 50 48 45 40 34 32 32 33 37 40 43 42 44 46 50 54 54 49
19 19 20 21 22 28 31 38 41 43 48 55 56 56 55 53 55 55 48 49 45 46 48 50 50 49 49 43 35 32 32 32 34 34 42 44 43 42 47 52 54 52 48
27 28 28 34 36 36 41 44 46 48 53 56 59 58 55 53 53 46 45 43 45 44 46 48 48 48 44 38 32 32 32 34 31 36 44 44 44 43 46 52 51 57 46
34 32 27 31 35 39 41 52 52 56 56 51 48 47 49 50 45 43 44 43 43 44 47 47 46 43 38 36 34 32 34 34 37 44 43 43 45 47 47 50 53 48 46
33 35 34 26 30 39 46 47 51 50 51 48 47 50 51 49 46 46 45 43 43 45 45 44 43 42 39 37 34 35 37 40 43 45 41 44 48 49 49 50 49 46 48
36 37 37 28 26 30 37 48 43 44 53 52 51 52 51 51 49 48 46 45 46 44 42 41 41 40 39 38 39 41 42 43 41 38 40 43 42 43 45 43 43 44 47
40 36 33 30 28 28 32 39 43 42 44 46 47 51 52 50 48 45 44 42 40 37 36 37 37 39 43 42 42 40 38 36 36 37 40 41 41 42 41 43 41 39 40
44 38 35 31 27 24 26 32 37 42 41 42 45 49 49 49 48 46 40 36 34 32 32 31 33 38 39 37 36 33 34 34 36 37 37 38 38 40 41 39 40 40 36
37 36 35 32 27 22 20 24 31 35 39 42 47 50 51 49 45 41 40 38 34 29 28 28 28 29 31 32 31 33 34 34 34 30 29 30 29 31 32 33 32 31 34
Wind_Direction_850mb
197 196 194 201 203 206 206 204 201 199 199 199 198 199 199 204 210 208 208 213 218 220 225 223 238 228 214 220 210 208 199 182 172 165 154 154 163 194 13 16 9 359 357
194 197 195 202 204 205 207 208 207 203 204 205 206 208 208 213 218 215 214 216 216 225 219 229 237 231 226 229 217 211 191 194 199 200 203 206 234 232 299 320 345 348 348
197 200 199 200 203 207 208 209 209 207 208 208 209 209 214 222 219 216 217 219 222 229 233 235 233 231 231 229 228 224 214 212 213 209 205 211 228 216 247 294 306 327 346
204 202 201 203 208 209 210 211 212 210 211 210 211 216 219 220 224 224 222 223 225 229 233 239 238 237 230 225 221 226 232 229 218 215 218 232 243 229 250 272 295 326 336
205 202 205 207 208 206 208 212 215 214 214 213 217 220 224 228 230 224 222 223 226 231 228 237 241 235 228 228 222 224 229 228 216 214 219 220 231 243 249 271 292 312 326
206 208 209 209 209 208 210 212 216 216 217 217 220 222 227 226 225 223 224 225 224 229 234 238 236 231 226 227 222 224 227 224 216 215 220 227 241 240 244 252 278 299 314
203 207 204 206 211 211 211 213 216 218 219 219 224 225 228 228 230 230 230 227 225 230 233 235 236 233 228 228 220 222 222 218 217 218 221 229 244 269 287 291 297 303 311
207 206 208 211 213 213 213 214 215 218 220 220 227 229 229 232 228 232 233 231 234 239 239 230 232 228 228 223 219 220 218 216 215 215 221 231 242 266 290 302 303 304 301
206 207 211 213 214 215 215 216 215 218 220 221 226 230 229 228 234 234 231 231 232 229 237 228 230 227 227 220 218 219 218 216 217 217 222 225 242 258 280 302 311 315 309
210 208 212 213 215 219 220 219 220 219 220 221 226 224 226 227 231 234 233 233 229 229 229 226 229 224 224 219 218 218 216 218 218 220 223 229 239 252 276 296 302 312 313
214 214 213 215 217 218 220 221 220 222 222 223 227 223 225 228 232 233 235 230 227 224 227 226 225 224 222 218 217 218 219 219 220 223 225 233 243 257 269 279 298 305 302
198 213 214 212 213 217 218 220 218 218 221 223 225 226 226 227 231 233 231 225 222 226 223 224 224 223 219 218 219 222 222 222 225 227 232 237 247 252 261 272 283 285 292
184 184 187 194 203 209 213 214 215 217 222 226 227 228 231 227 226 225 225 219 223 221 221 223 222 220 218 218 220 223 223 224 227 235 243 247 254 258 261 266 274 283 287
188 198 202 205 208 214 219 224 225 226 225 224 225 226 227 230 224 221 214 218 217 221 222 223 221 218 217 218 220 223 224 227 234 240 246 255 259 262 266 270 273 277 284
203 210 212 215 220 225 225 224 224 222 221 219 222 226 231 224 212 212 215 214 219 223 222 221 216 214 216 218 221 224 227 232 237 244 253 260 264 267 270 273 275 277 281
248 235 232 231 231 229 227 223 219 218 220 222 223 222 212 212 212 213 214 218 221 222 221 218 217 218 218 218 221 226 233 239 244 253 258 265 270 273 275 276 275 276 281
7 321 271 251 243 240 232 228 219 213 215 215 213 213 210 212 214 216 219 220 222 223 220 218 218 218 219 220 224 228 235 242 250 257 264 270 276 279 281 277 275 276 279
326 326 324 303 265 249 242 235 224 217 217 216 214 216 216 217 219 221 224 222 223 220 219 218 218 219 220 223 226 233 239 246 253 261 270 275 280 282 280 277 277 280 284
299 285 262 262 266 258 249 238 233 226 224 220 220 220 221 221 223 224 224 223 221 220 219 219 220 221 222 226 229 235 243 249 258 268 275 280 282 283 278 277 280 280 282
312 292 276 261 249 244 249 245 238 232 227 224 222 220 221 223 226 226 225 224 223 221 220 222 223 224 224 229 232 238 247 255 264 270 276 284 287 280 277 278 279 280 286
320 315 295 269 257 247 238 238 236 234 233 229 226 224 222 222 223 223 224 222 219 218 221 224 226 228 227 232 238 245 252 259 264 269 278 285 281 275 273 274 275 282 280
331 322 311 286 258 248 244 239 237 239 235 230 224 222 222 219 219 220 218 215 216 219 223 227 228 227 230 236 244 252 258 262 269 279 283 278 276 278 274 272 277 278 279
337 333 321 300 286 267 249 242 244 240 239 232 224 222 220 218 216 216 213 214 216 221 225 229 230 228 233 239 246 254 260 270 279 280 279 278 279 277 276 276 275 275 278
336 336 330 313 295 281 260 243 234 233 234 235 228 220 216 213 211 211 213 218 221 224 229 231 232 230 232 239 249 260 268 272 277 281 284 288 286 282 281 280 282 282 282
336 338 335 322 307 290 272 252 238 228 223 221 220 218 213 210 209 208 210 216 219 222 227 229 231 234 241 249 257 260 263 273 278 284 285 285 284 281 283 287 292 294 295
338 341 340 329 315 300 282 256 237 230 215 210 213 210 207 204 203 206 206 210 217 223 227 229 234 240 244 247 258 269 274 277 280 282 280 276 275 279 286 297 307 312 314